FW6369 Weather Reports


time (UTC)temp
C
wind
direction
speed
KPH
gust
KPH
rain 1hr
cm
rain 24hr
cm
rain mn
cm
humidity
%
barometer
mb
20260506150052 13 0 1.6 3.2 0.00 0.00 0.00 90 1020.5
20260506144554 12 0 0.0 1.6 0.00 0.03 0.00 91 1020.6
20260506143053 12 0 0.0 3.2 0.00 0.03 0.00 92 1020.5
20260506141550 12 0 0.0 3.2 0.00 0.03 0.00 92 1020.4
20260506140053 12 0 0.0 1.6 0.00 0.03 0.00 93 1020.3
20260506134559 12 0 0.0 1.6 0.00 0.03 0.00 93 1020.1
20260506133058 12 0 0.0 1.6 0.00 0.03 0.00 92 1020.1
20260506131602 12 0 0.0 0.0 0.00 0.03 0.00 92 1020.0
20260506130054 12 0 0.0 0.0 0.00 0.03 0.00 92 1019.9
20260506124549 12 0 0.0 1.6 0.00 0.03 0.00 91 1019.8
20260506123051 12 0 0.0 0.0 0.00 0.03 0.00 91 1019.7
20260506121548 12 0 0.0 1.6 0.00 0.03 0.00 91 1019.5
20260506120100 12 0 0.0 3.2 0.00 0.03 0.00 91 1019.5
20260506114553 12 0 0.0 1.6 0.00 0.03 0.00 91 1019.4
20260506113057 12 0 0.0 3.2 0.00 0.03 0.00 90 1019.4
20260506111549 12 192 0.0 3.2 0.00 0.03 0.00 90 1019.3
20260506110103 12 209 0.0 4.8 0.00 0.03 0.00 90 1019.2
20260506104555 12 214 1.6 6.4 0.00 0.03 0.00 90 1019.2
20260506103050 12 139 1.6 4.8 0.00 0.03 0.00 90 1019.1
20260506101549 12 0 0.0 4.8 0.00 0.03 0.00 90 1019.0
20260506100050 12 108 1.6 4.8 0.00 0.03 0.00 90 1018.9
20260506094607 12 0 0.0 4.8 0.00 0.08 0.00 90 1018.8
20260506093051 12 0 0.0 4.8 0.00 0.08 0.00 90 1018.8
20260506091550 12 133 0.0 4.8 0.00 0.08 0.00 90 1018.9
20260506090048 12 132 1.6 6.4 0.00 0.08 0.00 90 1018.9
20260506084547 12 0 0.0 3.2 0.00 0.15 0.00 90 1019.0
20260506083053 12 132 1.6 4.8 0.00 0.15 0.00 89 1019.1
20260506081556 12 126 0.0 4.8 0.00 0.15 0.00 89 1019.1
20260506073051 12 118 1.6 6.4 0.00 0.15 0.00 89 1018.8
20260506071554 12 132 1.6 6.4 0.00 0.15 0.00 89 1018.6
20260506061554 12 136 4.8 12.9 0.00 0.38 0.15 89 1018.2
20260506060117 12 117 3.2 6.4 0.00 0.38 0.15 88 1018.1
20260506044603 13 119 3.2 9.7 0.00 0.38 0.15 87 1017.7
20260506043047 13 117 3.2 12.9 0.00 0.38 0.15 87 1017.3
20260506041555 13 116 3.2 11.3 0.00 0.38 0.15 86 1017.1
20260506040057 13 108 3.2 11.3 0.00 0.38 0.15 84 1016.8
20260506034549 13 136 4.8 11.3 0.00 0.41 0.15 82 1016.7
20260506033051 14 117 4.8 12.9 0.00 0.41 0.15 81 1016.6
20260506031557 14 120 3.2 11.3 0.00 0.41 0.15 80 1016.1
20260506030052 15 95 3.2 14.5 0.00 0.41 0.15 78 1015.9
20260506024600 15 117 4.8 12.9 0.00 0.48 0.15 77 1015.7
20260506023058 16 98 3.2 12.9 0.00 0.48 0.15 76 1015.6
20260506021555 16 0 0.0 8.0 0.00 0.48 0.15 75 1015.4
20260506020054 16 213 1.6 8.0 0.00 0.48 0.15 74 1015.4
20260506014556 17 275 1.6 8.0 0.00 0.64 0.15 73 1015.1
20260506013051 17 68 0.0 9.7 0.00 0.64 0.15 72 1015.3
20260506011553 18 194 1.6 9.7 0.00 0.64 0.15 71 1015.0
20260506010055 17 207 1.6 9.7 0.00 0.64 0.15 72 1015.0
20260506004552 17 306 1.6 11.3 0.00 0.71 0.15 72 1015.0
20260506003050 17 0 1.6 9.7 0.00 0.71 0.15 72 1015.0
20260506001601 17 231 3.2 11.3 0.00 0.71 0.15 73 1014.8
20260506000052 17 113 4.8 14.5 0.00 0.71 0.15 73 1014.7
20260505234551 17 148 4.8 14.5 0.00 0.79 0.15 73 1014.9
20260505233050 18 184 3.2 12.9 0.00 0.79 0.15 73 1014.7
20260505231601 18 120 1.6 11.3 0.00 0.79 0.15 73 1014.8
20260505230057 18 0 0.0 9.7 0.00 0.79 0.15 73 1014.8
20260505224554 18 233 1.6 4.8 0.00 0.94 0.15 71 1014.7
20260505223053 18 199 0.0 9.7 0.00 0.94 0.15 72 1014.8
20260505221552 18 5 1.6 6.4 0.00 0.94 0.15 73 1014.9
20260505220050 18 0 1.6 4.8 0.00 0.94 0.15 73 1015.1
20260505214547 18 313 1.6 4.8 0.00 0.97 0.15 73 1015.2
20260505213058 17 92 1.6 6.4 0.00 0.97 0.15 73 1015.3
20260505211552 17 0 0.0 4.8 0.00 0.97 0.15 74 1015.5
20260505210054 17 0 1.6 4.8 0.00 0.97 0.15 75 1015.5
20260505204555 17 236 1.6 4.8 0.00 0.97 0.15 75 1015.4
20260505203048 17 288 1.6 8.0 0.00 0.97 0.15 77 1015.5
20260505201549 17 184 0.0 3.2 0.00 0.97 0.15 77 1015.6
20260505200049 16 78 0.0 4.8 0.00 0.97 0.15 76 1015.6
20260505194552 16 352 0.0 4.8 0.00 0.97 0.15 77 1015.5
20260505193052 16 135 0.0 3.2 0.00 0.97 0.15 77 1015.7
20260505191610 16 251 0.0 6.4 0.00 0.97 0.15 77 1015.7
20260505190052 17 188 0.0 8.0 0.00 0.97 0.15 76 1015.6
20260505184553 16 133 0.0 4.8 0.00 0.97 0.15 77 1015.7
20260505183050 17 294 1.6 4.8 0.00 0.97 0.15 74 1015.6
20260505181554 16 108 3.2 6.4 0.00 0.97 0.15 77 1015.6
20260505180103 16 121 0.0 4.8 0.00 0.97 0.15 79 1015.6
20260505174559 16 329 0.0 3.2 0.00 0.97 0.15 79 1015.4
20260505173053 16 0 0.0 6.4 0.00 0.97 0.15 81 1015.3
20260505171553 14 119 0.0 4.8 0.00 0.97 0.15 88 1015.3
20260505170059 13 163 0.0 4.8 0.00 0.97 0.15 91 1015.4
20260505164552 13 0 0.0 1.6 0.00 0.97 0.15 94 1015.3
20260505163049 12 0 0.0 3.2 0.00 0.97 0.15 96 1015.2
20260505161553 12 299 0.0 4.8 0.00 0.97 0.15 97 1015.2
20260505153050 12 189 0.0 1.6 0.03 0.97 0.15 98 1015.1
20260505151551 11 0 0.0 1.6 0.03 0.97 0.15 98 1015.0